TimeCST,TemperatureF,Dew PointF,Humidity,Sea Level PressureIn,VisibilityMPH,Wind Direction,Wind SpeedMPH,Gust SpeedMPH,PrecipitationIn,Events,Conditions,WindDirDegrees,DateUTC
12:15 AM,28.4,23.0,80,30.17,10.0,NW,6.9,-,N/A,,Overcast,320,2013-03-02 06:15:00
12:35 AM,26.6,24.8,93,30.17,10.0,NW,9.2,-,N/A,,Overcast,310,2013-03-02 06:35:00
12:55 AM,26.6,23.0,86,30.17,7.0,NW,8.1,-,N/A,,Overcast,320,2013-03-02 06:55:00
1:15 AM,26.6,23.0,86,30.17,8.0,NNW,8.1,-,N/A,,Overcast,330,2013-03-02 07:15:00
1:35 AM,26.6,21.2,80,30.17,6.0,NNW,8.1,-,N/A,,Overcast,330,2013-03-02 07:35:00
1:55 AM,26.6,21.2,80,30.17,7.0,NW,11.5,-,N/A,,Overcast,310,2013-03-02 07:55:00
2:15 AM,26.6,21.2,80,30.17,7.0,NW,9.2,-,N/A,,Overcast,310,2013-03-02 08:15:00
2:35 AM,26.6,21.2,80,30.17,9.0,NW,8.1,-,N/A,,Overcast,320,2013-03-02 08:35:00
2:55 AM,26.6,21.2,80,30.16,10.0,NW,9.2,17.3,N/A,,Overcast,310,2013-03-02 08:55:00
3:15 AM,26.6,21.2,80,30.16,10.0,NW,10.4,-,N/A,,Overcast,320,2013-03-02 09:15:00
3:35 AM,26.6,21.2,80,30.16,10.0,WNW,9.2,-,N/A,,Overcast,300,2013-03-02 09:35:00
3:55 AM,26.6,21.2,80,30.16,10.0,NW,11.5,16.1,N/A,,Overcast,320,2013-03-02 09:55:00
4:15 AM,26.6,21.2,80,30.16,10.0,NW,9.2,-,N/A,,Overcast,320,2013-03-02 10:15:00
4:35 AM,26.6,21.2,80,30.16,8.0,NNW,6.9,-,N/A,,Mostly Cloudy,330,2013-03-02 10:35:00
4:55 AM,26.6,21.2,80,30.16,10.0,NW,10.4,-,N/A,,Mostly Cloudy,320,2013-03-02 10:55:00
5:15 AM,26.6,19.4,74,30.16,9.0,NW,9.2,-,N/A,,Overcast,310,2013-03-02 11:15:00
5:35 AM,24.8,19.4,80,30.17,6.0,NW,12.7,16.1,N/A,,Overcast,310,2013-03-02 11:35:00
5:55 AM,24.8,19.4,80,30.18,5.0,NW,12.7,16.1,N/A,,Overcast,310,2013-03-02 11:55:00
6:15 AM,24.8,19.4,80,30.18,9.0,NNW,8.1,16.1,N/A,,Overcast,340,2013-03-02 12:15:00
6:35 AM,24.8,21.2,86,30.19,10.0,NNW,10.4,-,N/A,,Overcast,340,2013-03-02 12:35:00
6:55 AM,24.8,19.4,80,30.19,10.0,NNW,9.2,-,N/A,,Overcast,330,2013-03-02 12:55:00
7:15 AM,24.8,19.4,80,30.20,7.0,NW,11.5,-,N/A,,Overcast,310,2013-03-02 13:15:00
7:35 AM,24.8,19.4,80,30.21,10.0,NNW,11.5,18.4,N/A,,Overcast,330,2013-03-02 13:35:00
7:55 AM,24.8,19.4,80,30.22,10.0,NNW,10.4,-,N/A,,Overcast,330,2013-03-02 13:55:00
8:15 AM,24.8,19.4,80,30.23,10.0,NW,12.7,-,N/A,,Overcast,320,2013-03-02 14:15:00
8:35 AM,24.8,19.4,80,30.23,10.0,NW,8.1,-,N/A,,Overcast,320,2013-03-02 14:35:00
8:55 AM,24.8,19.4,80,30.23,9.0,NW,10.4,-,N/A,,Overcast,310,2013-03-02 14:55:00
9:15 AM,26.6,19.4,74,30.23,10.0,NW,9.2,-,N/A,,Overcast,310,2013-03-02 15:15:00
9:35 AM,26.6,19.4,74,30.23,8.0,NW,13.8,-,N/A,,Overcast,310,2013-03-02 15:35:00
9:55 AM,26.6,19.4,74,30.23,10.0,WNW,10.4,-,N/A,,Overcast,300,2013-03-02 15:55:00
10:15 AM,26.6,19.4,74,30.23,10.0,WNW,8.1,-,N/A,,Overcast,300,2013-03-02 16:15:00
10:35 AM,26.6,19.4,74,30.24,10.0,NW,11.5,-,N/A,,Overcast,310,2013-03-02 16:35:00
10:55 AM,26.6,19.4,74,30.24,5.0,NW,10.4,-,N/A,,Overcast,310,2013-03-02 16:55:00
11:15 AM,26.6,19.4,74,30.24,6.0,NW,8.1,-,N/A,,Overcast,310,2013-03-02 17:15:00
11:35 AM,26.6,19.4,74,30.24,8.0,NW,9.2,-,N/A,,Overcast,310,2013-03-02 17:35:00
11:55 AM,28.4,19.4,69,30.24,10.0,North,12.7,-,N/A,,Overcast,350,2013-03-02 17:55:00
12:15 PM,26.6,19.4,74,30.23,3.0,WNW,10.4,-,N/A,,Overcast,300,2013-03-02 18:15:00
12:35 PM,28.4,21.2,74,30.23,10.0,NW,11.5,-,N/A,,Overcast,310,2013-03-02 18:35:00
12:55 PM,28.4,19.4,69,30.22,7.0,NW,10.4,-,N/A,,Overcast,320,2013-03-02 18:55:00
1:15 PM,28.4,19.4,69,30.22,9.0,NNW,13.8,-,N/A,,Overcast,340,2013-03-02 19:15:00
1:35 PM,28.4,19.4,69,30.22,10.0,WNW,13.8,17.3,N/A,,Overcast,290,2013-03-02 19:35:00
1:55 PM,28.4,19.4,69,30.21,10.0,WNW,13.8,18.4,N/A,,Overcast,300,2013-03-02 19:55:00
2:15 PM,30.2,17.6,60,30.21,10.0,WNW,11.5,21.9,N/A,,Overcast,290,2013-03-02 20:15:00
2:35 PM,28.4,17.6,64,30.21,10.0,WNW,11.5,16.1,N/A,,Overcast,300,2013-03-02 20:35:00
2:55 PM,30.2,15.8,55,30.21,10.0,NW,10.4,-,N/A,,Overcast,320,2013-03-02 20:55:00
3:15 PM,30.2,17.6,60,30.20,10.0,NW,10.4,-,N/A,,Overcast,310,2013-03-02 21:15:00
3:35 PM,30.2,15.8,55,30.20,10.0,NNW,11.5,17.3,N/A,,Overcast,330,2013-03-02 21:35:00
3:55 PM,30.2,17.6,60,30.21,10.0,NNW,11.5,-,N/A,,Overcast,330,2013-03-02 21:55:00
4:15 PM,30.2,15.8,55,30.21,10.0,NNW,8.1,16.1,N/A,,Mostly Cloudy,330,2013-03-02 22:15:00
4:35 PM,30.2,15.8,55,30.21,10.0,NNW,10.4,-,N/A,,Mostly Cloudy,340,2013-03-02 22:35:00
4:55 PM,30.2,15.8,55,30.21,10.0,NW,8.1,-,N/A,,Mostly Cloudy,310,2013-03-02 22:55:00
5:15 PM,30.2,15.8,55,30.21,10.0,NW,9.2,-,N/A,,Mostly Cloudy,320,2013-03-02 23:15:00
5:35 PM,30.2,15.8,55,30.21,10.0,WNW,10.4,-,N/A,,Mostly Cloudy,300,2013-03-02 23:35:00
5:55 PM,28.4,14.0,55,30.22,10.0,WNW,11.5,-,N/A,,Partly Cloudy,300,2013-03-02 23:55:00
6:15 PM,28.4,15.8,59,30.22,10.0,NW,8.1,-,N/A,,Clear,320,2013-03-03 00:15:00
6:35 PM,28.4,15.8,59,30.22,10.0,NW,5.8,-,N/A,,Clear,320,2013-03-03 00:35:00
6:55 PM,26.6,15.8,64,30.22,10.0,NNW,5.8,-,N/A,,Clear,330,2013-03-03 00:55:00
7:15 PM,26.6,15.8,64,30.22,10.0,NNW,4.6,-,N/A,,Clear,330,2013-03-03 01:15:00
7:35 PM,26.6,15.8,64,30.22,10.0,NNW,4.6,-,N/A,,Clear,330,2013-03-03 01:35:00
7:55 PM,26.6,15.8,64,30.22,10.0,NNW,4.6,-,N/A,,Clear,330,2013-03-03 01:55:00
8:15 PM,24.8,15.8,69,30.23,10.0,NNW,4.6,-,N/A,,Clear,330,2013-03-03 02:15:00
8:35 PM,24.8,15.8,69,30.23,10.0,NNW,4.6,-,N/A,,Clear,330,2013-03-03 02:35:00
8:55 PM,24.8,15.8,69,30.23,10.0,NNW,4.6,-,N/A,,Clear,330,2013-03-03 02:55:00
9:15 PM,24.8,15.8,69,30.23,10.0,NW,3.5,-,N/A,,Clear,320,2013-03-03 03:15:00
9:35 PM,24.8,15.8,69,30.23,10.0,NNW,4.6,-,N/A,,Clear,340,2013-03-03 03:35:00
9:55 PM,24.8,15.8,69,30.22,10.0,NW,3.5,-,N/A,,Clear,320,2013-03-03 03:55:00
10:15 PM,23.0,14.0,68,30.23,10.0,NW,3.5,-,N/A,,Clear,320,2013-03-03 04:15:00
10:35 PM,21.2,15.8,80,30.22,10.0,NW,3.5,-,N/A,,Clear,310,2013-03-03 04:35:00
10:55 PM,21.2,15.8,80,30.21,10.0,NW,3.5,-,N/A,,Clear,320,2013-03-03 04:55:00
11:15 PM,21.2,15.8,80,30.21,10.0,NW,3.5,-,N/A,,Clear,310,2013-03-03 05:15:00
11:35 PM,21.2,14.0,74,30.20,10.0,Calm,Calm,-,N/A,,Clear,0,2013-03-03 05:35:00
11:55 PM,19.4,14.0,80,30.20,10.0,Calm,Calm,-,N/A,,Clear,0,2013-03-03 05:55:00